Time,TemperatureF,DewpointF,PressureIn,WindDirection,WindDirectionDegrees,WindSpeedMPH,WindSpeedGustMPH,Humidity,HourlyPrecipIn,Conditions,Clouds,dailyrainin,SolarRadiationWatts/m^2,SoftwareType,DateUTC
2013-04-09 00:12:00,70.0,67.0,-100.00,ESE,122,8.0,14.0,91,0.00,,,0.00,0.000000,,2013-04-09 05:12:00,
2013-04-09 00:22:00,70.0,67.0,-100.00,ESE,122,8.0,14.0,91,0.00,,,0.00,0.000000,,2013-04-09 05:22:00,
2013-04-09 00:32:00,70.0,67.0,-100.00,ESE,122,8.0,14.0,91,0.00,,,0.00,0.000000,,2013-04-09 05:32:00,
2013-04-09 00:42:00,70.0,67.0,-100.00,ESE,122,8.0,14.0,91,0.00,,,0.00,0.000000,,2013-04-09 05:42:00,
2013-04-09 00:50:00,71.0,67.0,-100.00,SE,138,9.0,19.0,88,0.00,,,0.00,0.000000,,2013-04-09 05:50:00,
2013-04-09 01:12:00,71.0,67.0,-100.00,SE,138,9.0,19.0,88,0.00,,,0.00,0.000000,,2013-04-09 06:12:00,
2013-04-09 01:22:00,71.0,67.0,-100.00,SE,138,9.0,19.0,88,0.00,,,0.00,0.000000,,2013-04-09 06:22:00,
2013-04-09 01:32:00,71.0,67.0,-100.00,SE,138,9.0,19.0,88,0.00,,,0.00,0.000000,,2013-04-09 06:32:00,
2013-04-09 01:42:00,71.0,67.0,-100.00,SE,138,9.0,19.0,88,0.00,,,0.00,0.000000,,2013-04-09 06:42:00,
2013-04-09 01:50:00,71.0,68.0,-100.00,SE,135,7.0,19.0,89,0.00,,,-99.99,0.000000,,2013-04-09 06:50:00,
2013-04-09 02:13:00,71.0,68.0,-100.00,SE,135,7.0,19.0,89,0.00,,,-99.99,0.000000,,2013-04-09 07:13:00,
2013-04-09 02:22:00,71.0,68.0,-100.00,SE,135,7.0,19.0,89,0.00,,,-99.99,0.000000,,2013-04-09 07:22:00,
2013-04-09 02:32:00,71.0,68.0,-100.00,SE,135,7.0,19.0,89,0.00,,,-99.99,0.000000,,2013-04-09 07:32:00,
2013-04-09 02:42:00,71.0,68.0,-100.00,SE,135,7.0,19.0,89,0.00,,,-99.99,0.000000,,2013-04-09 07:42:00,
2013-04-09 02:50:00,71.0,68.0,-100.00,SE,133,9.0,20.0,89,0.00,,,-99.99,0.000000,,2013-04-09 07:50:00,
2013-04-09 03:22:00,71.0,68.0,-100.00,SE,133,9.0,20.0,89,0.00,,,-99.99,0.000000,,2013-04-09 08:22:00,
2013-04-09 03:32:00,71.0,68.0,-100.00,SE,133,9.0,20.0,89,0.00,,,-99.99,0.000000,,2013-04-09 08:32:00,
2013-04-09 03:42:00,71.0,68.0,-100.00,SE,133,9.0,20.0,89,0.00,,,-99.99,0.000000,,2013-04-09 08:42:00,
2013-04-09 03:50:00,70.0,67.0,-100.00,SE,130,7.0,16.0,91,0.00,,,0.00,0.000000,,2013-04-09 08:50:00,
2013-04-09 04:22:00,70.0,67.0,-100.00,SE,130,7.0,16.0,91,0.00,,,0.00,0.000000,,2013-04-09 09:22:00,
2013-04-09 04:33:00,70.0,67.0,-100.00,SE,130,7.0,16.0,91,0.00,,,0.00,0.000000,,2013-04-09 09:33:00,
2013-04-09 04:43:00,70.0,67.0,-100.00,SE,130,7.0,16.0,91,0.00,,,0.00,0.000000,,2013-04-09 09:43:00,
2013-04-09 04:50:00,70.0,67.0,-100.00,SE,130,7.0,14.0,91,0.00,,,0.00,0.000000,,2013-04-09 09:50:00,
2013-04-09 05:13:00,70.0,67.0,-100.00,SE,130,7.0,14.0,91,0.00,,,0.00,0.000000,,2013-04-09 10:13:00,
2013-04-09 05:23:00,70.0,67.0,-100.00,SE,130,7.0,14.0,91,0.00,,,0.00,0.000000,,2013-04-09 10:23:00,
2013-04-09 05:33:00,70.0,67.0,-100.00,SE,130,7.0,14.0,91,0.00,,,0.00,0.000000,,2013-04-09 10:33:00,
2013-04-09 05:42:00,70.0,67.0,-100.00,SE,130,7.0,14.0,91,0.00,,,0.00,0.000000,,2013-04-09 10:42:00,
2013-04-09 05:50:00,70.0,68.0,-100.00,SE,139,7.0,16.0,92,0.00,,,0.00,0.000000,,2013-04-09 10:50:00,
2013-04-09 06:12:00,70.0,68.0,-100.00,SE,139,7.0,16.0,92,0.00,,,0.00,0.000000,,2013-04-09 11:12:00,
2013-04-09 06:22:00,70.0,68.0,-100.00,SE,139,7.0,16.0,92,0.00,,,0.00,0.000000,,2013-04-09 11:22:00,
2013-04-09 06:32:00,70.0,68.0,-100.00,SE,139,7.0,16.0,92,0.00,,,0.00,0.000000,,2013-04-09 11:32:00,
2013-04-09 06:42:00,70.0,68.0,-100.00,SE,139,7.0,16.0,92,0.00,,,0.00,0.000000,,2013-04-09 11:42:00,
2013-04-09 06:50:00,71.0,68.0,-100.00,SE,138,8.0,14.0,91,0.00,,,0.00,1.000000,,2013-04-09 11:50:00,
2013-04-09 07:12:00,71.0,68.0,-100.00,SE,138,8.0,14.0,91,0.00,,,0.00,1.000000,,2013-04-09 12:12:00,
2013-04-09 07:22:00,71.0,68.0,-100.00,SE,138,8.0,14.0,91,0.00,,,0.00,1.000000,,2013-04-09 12:22:00,
2013-04-09 07:32:00,71.0,68.0,-100.00,SE,138,8.0,14.0,91,0.00,,,0.00,1.000000,,2013-04-09 12:32:00,
2013-04-09 07:42:00,71.0,68.0,-100.00,SE,138,8.0,14.0,91,0.00,,,0.00,1.000000,,2013-04-09 12:42:00,
2013-04-09 07:50:00,71.0,68.0,-100.00,SE,137,7.0,16.0,90,0.00,,,0.00,30.000000,,2013-04-09 12:50:00,
2013-04-09 08:12:00,71.0,68.0,-100.00,SE,137,7.0,16.0,90,0.00,,,0.00,30.000000,,2013-04-09 13:12:00,
2013-04-09 08:23:00,71.0,68.0,-100.00,SE,137,7.0,16.0,90,0.00,,,0.00,30.000000,,2013-04-09 13:23:00,
2013-04-09 08:32:00,71.0,68.0,-100.00,SE,137,7.0,16.0,90,0.00,,,0.00,30.000000,,2013-04-09 13:32:00,
2013-04-09 08:42:00,71.0,68.0,-100.00,SE,137,7.0,16.0,90,0.00,,,0.00,30.000000,,2013-04-09 13:42:00,
2013-04-09 08:50:00,73.0,69.0,-100.00,SSE,151,8.0,17.0,87,0.00,,,0.00,94.000000,,2013-04-09 13:50:00,
2013-04-09 09:12:00,73.0,69.0,-100.00,SSE,151,8.0,17.0,87,0.00,,,0.00,94.000000,,2013-04-09 14:12:00,
2013-04-09 09:22:00,73.0,69.0,-100.00,SSE,151,8.0,17.0,87,0.00,,,0.00,94.000000,,2013-04-09 14:22:00,
2013-04-09 09:32:00,73.0,69.0,-100.00,SSE,151,8.0,17.0,87,0.00,,,0.00,94.000000,,2013-04-09 14:32:00,
2013-04-09 09:42:00,73.0,69.0,-100.00,SSE,151,8.0,17.0,87,0.00,,,0.00,94.000000,,2013-04-09 14:42:00,
2013-04-09 10:50:00,77.0,66.0,-100.00,SE,144,10.0,22.0,69,-99.99,,,0.00,495.000000,,2013-04-09 15:50:00,
2013-04-09 11:13:00,77.0,66.0,-100.00,SE,144,10.0,22.0,69,-99.99,,,0.00,495.000000,,2013-04-09 16:13:00,
2013-04-09 11:23:00,77.0,66.0,-100.00,SE,144,10.0,22.0,69,-99.99,,,0.00,495.000000,,2013-04-09 16:23:00,
2013-04-09 11:33:00,77.0,66.0,-100.00,SE,144,10.0,22.0,69,-99.99,,,0.00,495.000000,,2013-04-09 16:33:00,
2013-04-09 11:42:00,77.0,66.0,-100.00,SE,144,10.0,22.0,69,-99.99,,,0.00,495.000000,,2013-04-09 16:42:00,
2013-04-09 11:50:00,76.0,66.0,-100.00,SE,138,9.0,19.0,72,0.00,,,0.00,224.000000,,2013-04-09 16:50:00,
2013-04-09 12:23:00,76.0,66.0,-100.00,SE,138,9.0,19.0,72,0.00,,,0.00,224.000000,,2013-04-09 17:23:00,
2013-04-09 12:32:00,76.0,66.0,-100.00,SE,138,9.0,19.0,72,0.00,,,0.00,224.000000,,2013-04-09 17:32:00,
2013-04-09 12:42:00,76.0,66.0,-100.00,SE,138,9.0,19.0,72,0.00,,,0.00,224.000000,,2013-04-09 17:42:00,
2013-04-09 12:50:00,78.0,68.0,-100.00,SE,142,12.0,21.0,71,0.00,,,0.00,267.000000,,2013-04-09 17:50:00,
2013-04-09 13:13:00,78.0,68.0,-100.00,SE,142,12.0,21.0,71,0.00,,,0.00,267.000000,,2013-04-09 18:13:00,
2013-04-09 13:22:00,78.0,68.0,-100.00,SE,142,12.0,21.0,71,0.00,,,0.00,267.000000,,2013-04-09 18:22:00,
2013-04-09 13:33:00,78.0,68.0,-100.00,SE,142,12.0,21.0,71,0.00,,,0.00,267.000000,,2013-04-09 18:33:00,
2013-04-09 13:43:00,78.0,68.0,-100.00,SE,142,12.0,21.0,71,0.00,,,0.00,267.000000,,2013-04-09 18:43:00,
2013-04-09 14:50:00,79.0,68.0,-100.00,SE,133,14.0,26.0,68,-99.99,,,0.00,769.000000,,2013-04-09 19:50:00,
2013-04-09 15:12:00,79.0,68.0,-100.00,SE,133,14.0,26.0,68,-99.99,,,0.00,769.000000,,2013-04-09 20:12:00,
2013-04-09 15:22:00,79.0,68.0,-100.00,SE,133,14.0,26.0,68,-99.99,,,0.00,769.000000,,2013-04-09 20:22:00,
2013-04-09 15:33:00,79.0,68.0,-100.00,SE,133,14.0,26.0,68,-99.99,,,0.00,769.000000,,2013-04-09 20:33:00,
2013-04-09 15:43:00,79.0,68.0,-100.00,SE,133,14.0,26.0,68,-99.99,,,0.00,769.000000,,2013-04-09 20:43:00,
2013-04-09 16:50:00,76.0,67.0,-100.00,SE,138,12.0,25.0,75,-99.99,,,0.00,334.000000,,2013-04-09 21:50:00,
2013-04-09 17:23:00,76.0,67.0,-100.00,SE,138,12.0,25.0,75,-99.99,,,0.00,334.000000,,2013-04-09 22:23:00,
2013-04-09 17:33:00,76.0,67.0,-100.00,SE,138,12.0,25.0,75,-99.99,,,0.00,334.000000,,2013-04-09 22:33:00,
2013-04-09 17:42:00,76.0,67.0,-100.00,SE,138,12.0,25.0,75,-99.99,,,0.00,334.000000,,2013-04-09 22:42:00,
2013-04-09 18:50:00,75.0,67.0,-100.00,SE,131,11.0,20.0,76,-99.99,,,0.00,71.000000,,2013-04-09 23:50:00,
2013-04-09 19:23:00,75.0,67.0,-100.00,SE,131,11.0,20.0,76,-99.99,,,0.00,71.000000,,2013-04-10 00:23:00,
2013-04-09 19:32:00,75.0,67.0,-100.00,SE,131,11.0,20.0,76,-99.99,,,0.00,71.000000,,2013-04-10 00:32:00,
2013-04-09 19:42:00,75.0,67.0,-100.00,SE,131,11.0,20.0,76,-99.99,,,0.00,71.000000,,2013-04-10 00:42:00,
2013-04-09 19:50:00,73.0,66.0,-100.00,SE,124,9.0,16.0,79,0.00,,,0.00,6.000000,,2013-04-10 00:50:00,
2013-04-09 20:23:00,73.0,66.0,-100.00,SE,124,9.0,16.0,79,0.00,,,0.00,6.000000,,2013-04-10 01:23:00,
2013-04-09 20:32:00,73.0,66.0,-100.00,SE,124,9.0,16.0,79,0.00,,,0.00,6.000000,,2013-04-10 01:32:00,
2013-04-09 20:42:00,73.0,66.0,-100.00,SE,124,9.0,16.0,79,0.00,,,0.00,6.000000,,2013-04-10 01:42:00,
2013-04-09 20:50:00,73.0,67.0,-100.00,SE,124,8.0,14.0,82,0.00,,,0.00,0.000000,,2013-04-10 01:50:00,
2013-04-09 21:12:00,73.0,67.0,-100.00,SE,124,8.0,14.0,82,0.00,,,0.00,0.000000,,2013-04-10 02:12:00,
2013-04-09 21:22:00,73.0,67.0,-100.00,SE,124,8.0,14.0,82,0.00,,,0.00,0.000000,,2013-04-10 02:22:00,
2013-04-09 21:32:00,73.0,67.0,-100.00,SE,124,8.0,14.0,82,0.00,,,0.00,0.000000,,2013-04-10 02:32:00,
2013-04-09 21:43:00,73.0,67.0,-100.00,SE,124,8.0,14.0,82,0.00,,,0.00,0.000000,,2013-04-10 02:43:00,
2013-04-09 21:50:00,72.0,67.0,-100.00,ESE,122,9.0,15.0,84,0.00,,,0.00,0.000000,,2013-04-10 02:50:00,
2013-04-09 22:12:00,72.0,67.0,-100.00,ESE,122,9.0,15.0,84,0.00,,,0.00,0.000000,,2013-04-10 03:12:00,
2013-04-09 22:22:00,72.0,67.0,-100.00,ESE,122,9.0,15.0,84,0.00,,,0.00,0.000000,,2013-04-10 03:22:00,
2013-04-09 22:33:00,72.0,67.0,-100.00,ESE,122,9.0,15.0,84,0.00,,,0.00,0.000000,,2013-04-10 03:33:00,
2013-04-09 22:43:00,72.0,67.0,-100.00,ESE,122,9.0,15.0,84,0.00,,,0.00,0.000000,,2013-04-10 03:43:00,
2013-04-09 22:50:00,71.0,67.0,-100.00,ESE,118,9.0,17.0,87,0.00,,,0.00,0.000000,,2013-04-10 03:50:00,
2013-04-09 23:13:00,71.0,67.0,-100.00,ESE,118,9.0,17.0,87,0.00,,,0.00,0.000000,,2013-04-10 04:13:00,
2013-04-09 23:23:00,71.0,67.0,-100.00,ESE,118,9.0,17.0,87,0.00,,,0.00,0.000000,,2013-04-10 04:23:00,
2013-04-09 23:33:00,71.0,67.0,-100.00,ESE,118,9.0,17.0,87,0.00,,,0.00,0.000000,,2013-04-10 04:33:00,
2013-04-09 23:42:00,71.0,67.0,-100.00,ESE,118,9.0,17.0,87,0.00,,,0.00,0.000000,,2013-04-10 04:42:00,
2013-04-09 23:50:00,71.0,67.0,-100.00,ESE,117,8.0,16.0,87,0.00,,,0.00,0.000000,,2013-04-10 04:50:00,